Terminal Aerodrome Forecast
Issued by NWS

Home | Current Version | Previous Version | Text Only | Print | Product List | Glossary On
Versions: 1 2 3 4 5 6 7 8 9 10 11 12 13 14 15 16 17 18 19 20 21 22 23 24 25 26 27 28 29 30 31 32 33 34 35 36 37 38 39 40 41 42 43 44 45 46 47 48 49 50
000
FTAK31 PANC 200509 AAA
TAFACV
TAF AMD
PACV 200509Z 2005/2024 25008KT P6SM BKN015 OVC035
     FM200800 VRB03KT P6SM BKN025 OVC060
     FM201100 00000KT P6SM VCFG SCT010 OVC025
     FM201800 VRB03KT P6SM BKN035
     FM202000 23005KT P6SM SCT040 BKN200=

USA.gov is the U.S. government's official web portal to all federal, state and local government web resources and services.